FDX9900 KDEN-KOAK

Flight info

Callsign FDX9900
Flight time 2h 19m
Altitude 36000
Route ZIMMR4 CHNGY DTA RPARK OAKES3
Aircraft B77L/H-SDE1E2E3FGHIJ2J3J4J5M1RWXY/LB1D1

Departure

Time 2026-05-04 21:23
Airport Denver International Airport (KDEN)

Arrival

Time 2026-05-04 23:42
Airport San Francisco Bay Oakland International Airport (KOAK)
Time Latitude Longitude Altitude Speed Heading
2026-05-04 20:35 39.83094 -104.67486 5391 ft 0 kts 359°
2026-05-04 21:11 39.83077 -104.67486 5384 ft 2 kts 359°
2026-05-04 21:11 39.83052 -104.67488 5387 ft 4 kts 17°
2026-05-04 21:11 39.83030 -104.67502 5385 ft 4 kts 43°
2026-05-04 21:12 39.83015 -104.67526 5385 ft 4 kts 74°
2026-05-04 21:12 39.83013 -104.67546 5384 ft 1 kts 91°
2026-05-04 21:13 39.83012 -104.67501 5384 ft 8 kts 91°
2026-05-04 21:14 39.83011 -104.67427 5386 ft 8 kts 91°
2026-05-04 21:14 39.83009 -104.67353 5388 ft 8 kts 91°
2026-05-04 21:14 39.82998 -104.67281 5387 ft 9 kts 111°
2026-05-04 21:14 39.82958 -104.67169 5399 ft 19 kts 114°
2026-05-04 21:15 39.82938 -104.66949 5404 ft 32 kts 92°
2026-05-04 21:15 39.82936 -104.66598 5436 ft 40 kts 90°
2026-05-04 21:15 39.82940 -104.66328 5444 ft 25 kts 76°
2026-05-04 21:15 39.83058 -104.66272 5445 ft 19 kts
2026-05-04 21:16 39.83194 -104.66268 5441 ft 23 kts
2026-05-04 21:16 39.83381 -104.66263 5436 ft 30 kts 358°
2026-05-04 21:16 39.83590 -104.66268 5421 ft 30 kts 359°
2026-05-04 21:16 39.83797 -104.66266 5419 ft 30 kts
2026-05-04 21:17 39.84005 -104.66257 5419 ft 30 kts
2026-05-04 21:17 39.84213 -104.66253 5416 ft 30 kts 359°
2026-05-04 21:17 39.84418 -104.66253 5413 ft 30 kts
2026-05-04 21:17 39.84626 -104.66252 5405 ft 30 kts
2026-05-04 21:18 39.84834 -104.66249 5404 ft 30 kts
2026-05-04 21:18 39.85042 -104.66244 5396 ft 30 kts
2026-05-04 21:18 39.85201 -104.66305 5390 ft 21 kts 283°
2026-05-04 21:18 39.85208 -104.66495 5400 ft 21 kts 274°
2026-05-04 21:19 39.85231 -104.66683 5390 ft 21 kts 281°
2026-05-04 21:19 39.85242 -104.66881 5391 ft 23 kts 273°
2026-05-04 21:19 39.85248 -104.67088 5386 ft 23 kts 271°
2026-05-04 21:19 39.85250 -104.67306 5390 ft 25 kts 269°
2026-05-04 21:20 39.85248 -104.67536 5390 ft 26 kts 269°
2026-05-04 21:20 39.85244 -104.67780 5389 ft 27 kts 269°
2026-05-04 21:20 39.85240 -104.68030 5389 ft 28 kts 269°
2026-05-04 21:20 39.85238 -104.68198 5390 ft 28 kts 269°
2026-05-04 21:21 39.85206 -104.68460 5382 ft 31 kts 268°
2026-05-04 21:21 39.85195 -104.68768 5364 ft 37 kts 266°
2026-05-04 21:21 39.85190 -104.69115 5353 ft 40 kts 269°
2026-05-04 21:21 39.85200 -104.69445 5343 ft 35 kts 272°
2026-05-04 21:22 39.85291 -104.69654 5340 ft 31 kts 356°
2026-05-04 21:22 39.85770 -104.69653 5345 ft 113 kts 359°
2026-05-04 21:22 39.86852 -104.69658 5345 ft 198 kts
2026-05-04 21:22 39.88410 -104.69608 5697 ft 240 kts 357°
2026-05-04 21:23 39.90116 -104.69443 6719 ft 258 kts 14°
2026-05-04 21:23 39.91909 -104.68954 7186 ft 269 kts
2026-05-04 21:23 39.93778 -104.68744 7839 ft 270 kts 359°
2026-05-04 21:23 39.95616 -104.68834 8602 ft 256 kts 352°
2026-05-04 21:24 39.97339 -104.69218 9048 ft 248 kts 345°
2026-05-04 21:24 39.99017 -104.69895 9214 ft 252 kts 338°
2026-05-04 21:24 40.00559 -104.70928 9295 ft 256 kts 316°
2026-05-04 21:24 40.01487 -104.72928 9401 ft 271 kts 280°
2026-05-04 21:25 40.01327 -104.75406 9815 ft 286 kts 249°
2026-05-04 21:25 40.00236 -104.77548 9926 ft 283 kts 230°
2026-05-04 21:25 39.98997 -104.79535 9988 ft 279 kts 234°
2026-05-04 21:25 39.97873 -104.81518 9964 ft 266 kts 236°
2026-05-04 21:26 39.96831 -104.83469 9960 ft 260 kts 237°
2026-05-04 21:26 39.95808 -104.85427 10011 ft 264 kts 237°
2026-05-04 21:26 39.94773 -104.87429 10071 ft 268 kts 237°
2026-05-04 21:26 39.93743 -104.89453 10111 ft 269 kts 242°
2026-05-04 21:27 39.93216 -104.91776 10148 ft 269 kts 270°
2026-05-04 21:27 39.93280 -104.94216 10230 ft 272 kts 273°
2026-05-04 21:27 39.93350 -104.96712 10305 ft 280 kts 272°
2026-05-04 21:27 39.93414 -104.99285 10747 ft 289 kts 272°
2026-05-04 21:28 39.93478 -105.01924 11528 ft 293 kts 272°
2026-05-04 21:28 39.93540 -105.04567 12500 ft 294 kts 272°
2026-05-04 21:28 39.93602 -105.07246 13376 ft 295 kts 272°
2026-05-04 21:28 39.93663 -105.09924 14188 ft 299 kts 272°
2026-05-04 21:29 39.93723 -105.12641 14933 ft 299 kts 272°
2026-05-04 21:29 39.93783 -105.15367 15724 ft 301 kts 272°
2026-05-04 21:29 39.93843 -105.18114 16373 ft 307 kts 272°
2026-05-04 21:29 39.93903 -105.20900 17144 ft 307 kts 271°
2026-05-04 21:30 39.94012 -105.23702 17809 ft 313 kts 275°
2026-05-04 21:30 39.94233 -105.26540 18441 ft 316 kts 276°
2026-05-04 21:30 39.94478 -105.29388 19073 ft 319 kts 276°
2026-05-04 21:30 39.94720 -105.32281 19686 ft 321 kts 275°
2026-05-04 21:31 39.95180 -105.38095 21016 ft 324 kts 275°
2026-05-04 21:31 39.95409 -105.41028 21662 ft 326 kts 275°
2026-05-04 21:31 39.95640 -105.43978 22313 ft 329 kts 275°
2026-05-04 21:32 39.95874 -105.46956 22990 ft 331 kts 275°
2026-05-04 21:32 39.96108 -105.49945 23597 ft 333 kts 275°
2026-05-04 21:32 39.96343 -105.52960 24157 ft 335 kts 275°
2026-05-04 21:32 39.96576 -105.55982 24766 ft 335 kts 275°
2026-05-04 21:33 39.96808 -105.58996 25443 ft 335 kts 275°
2026-05-04 21:33 39.97039 -105.62023 26050 ft 336 kts 275°
2026-05-04 21:33 39.97270 -105.65063 26644 ft 338 kts 275°
2026-05-04 21:33 39.97482 -105.68167 26828 ft 352 kts 274°
2026-05-04 21:34 39.97654 -105.71409 27143 ft 363 kts 274°
2026-05-04 21:34 39.97811 -105.74682 27607 ft 369 kts 274°
2026-05-04 21:34 39.97971 -105.78074 28223 ft 371 kts 274°
2026-05-04 21:34 39.98131 -105.81435 28915 ft 371 kts 274°
2026-05-04 21:35 39.98291 -105.84750 29556 ft 372 kts 274°
2026-05-04 21:35 39.98455 -105.88112 30127 ft 373 kts 274°
2026-05-04 21:35 39.98620 -105.91500 30616 ft 374 kts 274°
2026-05-04 21:35 39.98785 -105.94888 31161 ft 373 kts 273°
2026-05-04 21:36 39.98950 -105.98284 31417 ft 381 kts 273°
2026-05-04 21:36 39.99291 -106.05369 31578 ft 401 kts 273°
2026-05-04 21:37 39.99643 -106.12783 31901 ft 415 kts 273°
2026-05-04 21:37 39.99819 -106.16513 32560 ft 408 kts 273°
2026-05-04 21:37 39.99991 -106.20178 33332 ft 399 kts 273°
2026-05-04 21:37 40.00157 -106.23745 34100 ft 391 kts 272°
2026-05-04 21:38 40.00319 -106.27258 34640 ft 386 kts 272°
2026-05-04 21:38 40.00478 -106.30736 35015 ft 384 kts 272°
2026-05-04 21:38 40.00636 -106.34213 35351 ft 383 kts 272°
2026-05-04 21:38 40.00793 -106.37680 35698 ft 381 kts 272°
2026-05-04 21:39 40.00947 -106.41124 35860 ft 380 kts 272°
2026-05-04 21:39 40.01050 -106.47969 35874 ft 379 kts 266°
2026-05-04 21:40 40.00495 -106.54830 35846 ft 381 kts 264°
2026-05-04 21:40 39.99852 -106.61709 35863 ft 383 kts 263°
2026-05-04 21:41 39.99204 -106.68615 35863 ft 385 kts 263°
2026-05-04 21:41 39.98556 -106.75528 35860 ft 380 kts 263°
2026-05-04 21:42 39.97922 -106.82304 35875 ft 374 kts 263°
2026-05-04 21:42 39.97286 -106.89054 35871 ft 376 kts 263°
2026-05-04 21:43 39.96644 -106.95835 35866 ft 378 kts 263°
2026-05-04 21:43 39.95996 -107.02641 35871 ft 378 kts 263°
2026-05-04 21:44 39.95342 -107.09447 35866 ft 378 kts 263°
2026-05-04 21:44 39.94686 -107.16257 35869 ft 379 kts 263°
2026-05-04 21:45 39.94024 -107.23084 35886 ft 380 kts 263°
2026-05-04 21:45 39.93357 -107.29917 35888 ft 380 kts 263°
2026-05-04 21:46 39.92690 -107.36698 35875 ft 380 kts 263°
2026-05-04 21:46 39.92011 -107.43555 35898 ft 379 kts 263°
2026-05-04 21:47 39.91339 -107.50315 35913 ft 379 kts 263°
2026-05-04 21:47 39.90657 -107.57119 35917 ft 379 kts 263°
2026-05-04 21:48 39.89973 -107.63923 35920 ft 379 kts 262°
2026-05-04 21:48 39.89282 -107.70742 35927 ft 380 kts 262°
2026-05-04 21:49 39.88587 -107.77570 35944 ft 381 kts 263°
2026-05-04 21:49 39.87883 -107.84425 35943 ft 382 kts 262°
2026-05-04 21:50 39.87177 -107.91282 35946 ft 382 kts 262°
2026-05-04 21:50 39.86465 -107.98136 35918 ft 382 kts 262°
2026-05-04 21:51 39.85752 -108.04969 35905 ft 381 kts 262°
2026-05-04 21:51 39.85036 -108.11797 35892 ft 380 kts 262°
2026-05-04 21:52 39.84315 -108.18627 35868 ft 383 kts 262°
2026-05-04 21:52 39.83582 -108.25520 35849 ft 386 kts 262°
2026-05-04 21:53 39.82841 -108.32462 35832 ft 389 kts 262°
2026-05-04 21:53 39.82092 -108.39433 35824 ft 390 kts 261°
2026-05-04 21:54 39.81339 -108.46409 35810 ft 389 kts 261°
2026-05-04 21:54 39.80584 -108.53366 35796 ft 387 kts 261°
2026-05-04 21:55 39.79828 -108.60269 35797 ft 386 kts 261°
2026-05-04 21:55 39.79067 -108.67185 35789 ft 386 kts 261°
2026-05-04 21:56 39.78305 -108.74084 35779 ft 386 kts 261°
2026-05-04 21:56 39.77538 -108.80985 35762 ft 386 kts 261°
2026-05-04 21:57 39.76771 -108.87834 35763 ft 385 kts 261°
2026-05-04 21:57 39.75997 -108.94727 35744 ft 385 kts 261°
2026-05-04 21:58 39.75221 -109.01613 35738 ft 385 kts 261°
2026-05-04 21:58 39.74438 -109.08502 35729 ft 385 kts 261°
2026-05-04 21:59 39.73655 -109.15368 35744 ft 385 kts 261°
2026-05-04 21:59 39.72865 -109.22247 35742 ft 385 kts 260°
2026-05-04 22:00 39.72070 -109.29132 35734 ft 386 kts 260°
2026-05-04 22:00 39.71269 -109.36035 35721 ft 387 kts 260°
2026-05-04 22:01 39.70463 -109.42937 35730 ft 386 kts 260°
2026-05-04 22:01 39.69654 -109.49834 35726 ft 387 kts 260°
2026-05-04 22:02 39.68839 -109.56740 35705 ft 386 kts 260°
2026-05-04 22:02 39.68025 -109.63612 35722 ft 385 kts 260°
2026-05-04 22:03 39.67206 -109.70490 35726 ft 386 kts 260°
2026-05-04 22:03 39.66379 -109.77384 35726 ft 387 kts 260°
2026-05-04 22:04 39.65547 -109.84300 35737 ft 388 kts 260°
2026-05-04 22:04 39.64714 -109.91190 35738 ft 390 kts 259°
2026-05-04 22:05 39.63862 -109.98193 35743 ft 392 kts 259°
2026-05-04 22:05 39.63011 -110.05162 35721 ft 395 kts 260°
2026-05-04 22:06 39.62145 -110.12196 35755 ft 392 kts 259°
2026-05-04 22:06 39.61424 -110.18026 35734 ft 389 kts 259°
2026-05-04 22:07 39.60428 -110.26070 35738 ft 389 kts 259°
2026-05-04 22:07 39.59705 -110.31877 35736 ft 389 kts 259°
2026-05-04 22:08 39.58834 -110.38823 35801 ft 392 kts 259°
2026-05-04 22:08 39.57949 -110.45825 35833 ft 395 kts 259°
2026-05-04 22:09 39.57059 -110.52860 35869 ft 397 kts 259°
2026-05-04 22:09 39.56158 -110.59950 35895 ft 399 kts 259°
2026-05-04 22:10 39.55250 -110.67052 35920 ft 400 kts 259°
2026-05-04 22:10 39.54336 -110.74166 35914 ft 400 kts 259°
2026-05-04 22:11 39.53417 -110.81282 35914 ft 400 kts 259°
2026-05-04 22:11 39.52495 -110.88391 35888 ft 400 kts 259°
2026-05-04 22:12 39.51569 -110.95485 35873 ft 400 kts 259°
2026-05-04 22:12 39.50645 -111.02542 35851 ft 400 kts 259°
2026-05-04 22:13 39.49701 -111.09698 35855 ft 400 kts 258°
2026-05-04 22:13 39.48767 -111.16765 35828 ft 403 kts 258°
2026-05-04 22:14 39.47816 -111.23917 35815 ft 404 kts 258°
2026-05-04 22:14 39.46857 -111.31096 35803 ft 405 kts 258°
2026-05-04 22:15 39.45891 -111.38286 35791 ft 407 kts 258°
2026-05-04 22:15 39.44916 -111.45504 35780 ft 407 kts 258°
2026-05-04 22:16 39.43941 -111.52699 35776 ft 405 kts 258°
2026-05-04 22:16 39.42964 -111.59874 35762 ft 405 kts 258°
2026-05-04 22:17 39.41985 -111.67027 35754 ft 404 kts 258°
2026-05-04 22:17 39.41001 -111.74172 35748 ft 403 kts 258°
2026-05-04 22:18 39.40013 -111.81321 35745 ft 405 kts 258°
2026-05-04 22:18 39.39016 -111.88505 35746 ft 407 kts 258°
2026-05-04 22:19 39.38007 -111.95732 35737 ft 409 kts 258°
2026-05-04 22:19 39.36990 -112.02986 35729 ft 411 kts 257°
2026-05-04 22:20 39.35965 -112.10265 35755 ft 413 kts 257°
2026-05-04 22:20 39.34931 -112.17576 35765 ft 414 kts 257°
2026-05-04 22:21 39.33892 -112.24881 35777 ft 414 kts 258°
2026-05-04 22:21 39.32849 -112.32207 35824 ft 415 kts 257°
2026-05-04 22:22 39.31795 -112.39537 35854 ft 417 kts 257°
2026-05-04 22:22 39.30734 -112.46905 35862 ft 418 kts 257°
2026-05-04 22:23 39.29642 -112.54277 35858 ft 418 kts 256°
2026-05-04 22:23 39.28467 -112.61582 35837 ft 418 kts 256°
2026-05-04 22:24 39.27269 -112.68932 35804 ft 418 kts 256°
2026-05-04 22:24 39.26069 -112.76323 35769 ft 419 kts 256°
2026-05-04 22:25 39.24875 -112.83678 35736 ft 419 kts 256°
2026-05-04 22:25 39.23685 -112.90989 35709 ft 419 kts 256°
2026-05-04 22:26 39.22483 -112.98350 35700 ft 420 kts 256°
2026-05-04 22:26 39.21274 -113.05717 35707 ft 420 kts 256°
2026-05-04 22:27 39.20059 -113.13089 35709 ft 421 kts 256°
2026-05-04 22:27 39.18836 -113.20483 35704 ft 422 kts 256°
2026-05-04 22:28 39.17607 -113.27878 35711 ft 422 kts 256°
2026-05-04 22:28 39.16373 -113.35280 35719 ft 423 kts 256°
2026-05-04 22:29 39.15132 -113.42682 35737 ft 422 kts 256°
2026-05-04 22:29 39.13886 -113.50089 35718 ft 424 kts 256°
2026-05-04 22:30 39.12630 -113.57525 35721 ft 425 kts 256°
2026-05-04 22:30 39.11368 -113.64966 35719 ft 425 kts 255°
2026-05-04 22:31 39.10100 -113.72410 35728 ft 426 kts 255°
2026-05-04 22:31 39.08826 -113.79865 35724 ft 427 kts 255°
2026-05-04 22:32 39.07545 -113.87326 35733 ft 427 kts 255°
2026-05-04 22:32 39.06258 -113.94793 35735 ft 427 kts 255°
2026-05-04 22:33 39.04966 -114.02251 35740 ft 427 kts 255°
2026-05-04 22:33 39.03671 -114.09700 35747 ft 427 kts 255°
2026-05-04 22:34 39.02372 -114.17147 35736 ft 427 kts 255°
2026-05-04 22:34 39.01074 -114.24553 35758 ft 428 kts 255°
2026-05-04 22:35 38.99759 -114.32027 35745 ft 430 kts 255°
2026-05-04 22:35 38.98425 -114.39585 35741 ft 431 kts 255°
2026-05-04 22:36 38.97103 -114.47037 35740 ft 431 kts 255°
2026-05-04 22:36 38.95768 -114.54539 35740 ft 430 kts 255°
2026-05-04 22:37 38.94427 -114.62037 35734 ft 430 kts 255°
2026-05-04 22:37 38.93087 -114.69511 35748 ft 429 kts 255°
2026-05-04 22:38 38.91741 -114.76986 35735 ft 431 kts 255°
2026-05-04 22:38 38.90383 -114.84490 35734 ft 432 kts 255°
2026-05-04 22:39 38.89019 -114.91999 35730 ft 433 kts 255°
2026-05-04 22:39 38.87646 -114.99530 35714 ft 434 kts 255°
2026-05-04 22:40 38.86266 -115.07076 35718 ft 435 kts 255°
2026-05-04 22:40 38.84877 -115.14638 35718 ft 435 kts 255°
2026-05-04 22:41 38.83484 -115.22192 35713 ft 436 kts 255°
2026-05-04 22:41 38.82084 -115.29751 35715 ft 435 kts 255°
2026-05-04 22:42 38.80681 -115.37304 35707 ft 436 kts 255°
2026-05-04 22:42 38.79282 -115.44805 35714 ft 436 kts 255°
2026-05-04 22:43 38.77857 -115.52407 35716 ft 436 kts 254°
2026-05-04 22:43 38.76448 -115.59906 35717 ft 436 kts 254°
2026-05-04 22:44 38.75021 -115.67464 35716 ft 436 kts 254°
2026-05-04 22:44 38.73593 -115.75009 35727 ft 435 kts 254°
2026-05-04 22:45 38.72159 -115.82547 35727 ft 436 kts 254°
2026-05-04 22:45 38.69997 -115.93860 35743 ft 437 kts 254°
2026-05-04 22:46 38.68546 -116.01417 35745 ft 438 kts 254°
2026-05-04 22:46 38.67088 -116.08983 35754 ft 438 kts 254°
2026-05-04 22:47 38.65625 -116.16553 35758 ft 438 kts 254°
2026-05-04 22:47 38.64154 -116.24130 35758 ft 439 kts 254°
2026-05-04 22:48 38.62678 -116.31703 35772 ft 439 kts 254°
2026-05-04 22:48 38.61195 -116.39280 35770 ft 440 kts 254°
2026-05-04 22:49 38.59707 -116.46870 35777 ft 440 kts 254°
2026-05-04 22:49 38.58215 -116.54446 35775 ft 440 kts 254°
2026-05-04 22:50 38.56715 -116.62027 35776 ft 440 kts 254°
2026-05-04 22:50 38.55210 -116.69608 35782 ft 440 kts 253°
2026-05-04 22:51 38.53697 -116.77198 35782 ft 441 kts 254°
2026-05-04 22:51 38.52182 -116.84780 35793 ft 441 kts 254°
2026-05-04 22:52 38.50915 -116.91099 35790 ft 442 kts 253°
2026-05-04 22:52 38.49384 -116.98701 35784 ft 443 kts 253°
2026-05-04 22:53 38.47844 -117.06327 35783 ft 444 kts 253°
2026-05-04 22:53 38.46299 -117.13949 35789 ft 444 kts 253°
2026-05-04 22:54 38.44744 -117.21588 35780 ft 445 kts 253°
2026-05-04 22:54 38.43184 -117.29227 35775 ft 446 kts 253°
2026-05-04 22:55 38.41616 -117.36880 35781 ft 446 kts 253°
2026-05-04 22:55 38.40041 -117.44532 35773 ft 446 kts 254°
2026-05-04 22:56 38.38462 -117.52182 35762 ft 447 kts 254°
2026-05-04 22:56 38.36877 -117.59835 35764 ft 447 kts 254°
2026-05-04 22:57 38.35285 -117.67489 35778 ft 447 kts 254°
2026-05-04 22:57 38.33688 -117.75144 35769 ft 447 kts 254°
2026-05-04 22:58 38.32087 -117.82793 35769 ft 447 kts 254°
2026-05-04 22:58 38.30480 -117.90440 35775 ft 447 kts 254°
2026-05-04 22:59 38.28877 -117.98040 35778 ft 447 kts 254°
2026-05-04 22:59 38.27261 -118.05674 35775 ft 447 kts 254°
2026-05-04 23:00 38.25639 -118.13317 35781 ft 447 kts 254°
2026-05-04 23:00 38.24015 -118.20935 35786 ft 446 kts 254°
2026-05-04 23:01 38.22386 -118.28554 35799 ft 446 kts 254°
2026-05-04 23:01 38.20754 -118.36160 35794 ft 445 kts 253°
2026-05-04 23:02 38.19121 -118.43742 35807 ft 444 kts 253°
2026-05-04 23:02 38.17484 -118.51320 35824 ft 445 kts 253°
2026-05-04 23:03 38.15840 -118.58905 35827 ft 446 kts 253°
2026-05-04 23:03 38.14187 -118.66509 35834 ft 447 kts 253°
2026-05-04 23:04 38.12525 -118.74130 35844 ft 448 kts 253°
2026-05-04 23:04 38.11208 -118.81882 35847 ft 451 kts 258°
2026-05-04 23:05 38.10156 -118.89737 35857 ft 452 kts 259°
2026-05-04 23:05 38.09076 -118.97609 35864 ft 452 kts 258°
2026-05-04 23:06 38.07944 -119.05474 35874 ft 454 kts 258°
2026-05-04 23:06 38.06786 -119.13360 35897 ft 455 kts 258°
2026-05-04 23:07 38.05621 -119.21248 35906 ft 457 kts 258°
2026-05-04 23:07 38.04450 -119.29157 35928 ft 458 kts 257°
2026-05-04 23:08 38.03266 -119.37115 35957 ft 460 kts 257°
2026-05-04 23:08 38.02073 -119.45104 35971 ft 461 kts 257°
2026-05-04 23:09 38.00872 -119.53098 35988 ft 463 kts 257°
2026-05-04 23:09 37.99662 -119.61119 35951 ft 462 kts 257°
2026-05-04 23:10 37.99060 -119.65103 35509 ft 459 kts 257°
2026-05-04 23:10 37.98458 -119.69064 34873 ft 459 kts 257°
2026-05-04 23:10 37.97852 -119.73041 34186 ft 461 kts 257°
2026-05-04 23:10 37.97237 -119.77036 33499 ft 462 kts 257°
2026-05-04 23:11 37.96618 -119.81037 32785 ft 463 kts 257°
2026-05-04 23:11 37.95997 -119.85037 32223 ft 462 kts 258°
2026-05-04 23:11 37.95378 -119.89021 31679 ft 460 kts 258°
2026-05-04 23:11 37.94760 -119.92995 31128 ft 459 kts 258°
2026-05-04 23:12 37.94144 -119.96952 30505 ft 460 kts 258°
2026-05-04 23:12 37.93522 -120.00940 29799 ft 462 kts 258°
2026-05-04 23:12 37.92897 -120.04939 29207 ft 461 kts 258°
2026-05-04 23:12 37.92277 -120.08892 28748 ft 456 kts 258°
2026-05-04 23:13 37.91661 -120.12814 28314 ft 451 kts 258°
2026-05-04 23:13 37.91050 -120.16690 27853 ft 448 kts 258°
2026-05-04 23:13 37.90441 -120.20549 27370 ft 445 kts 258°
2026-05-04 23:13 37.89835 -120.24377 26895 ft 442 kts 257°
2026-05-04 23:14 37.89233 -120.28177 26441 ft 440 kts 257°
2026-05-04 23:14 37.88633 -120.31959 25999 ft 437 kts 257°
2026-05-04 23:14 37.88033 -120.35720 25567 ft 434 kts 257°
2026-05-04 23:14 37.87420 -120.39448 25125 ft 431 kts 256°
2026-05-04 23:15 37.86797 -120.43154 24682 ft 430 kts 256°
2026-05-04 23:15 37.86171 -120.46841 24248 ft 428 kts 256°
2026-05-04 23:15 37.85549 -120.50509 23801 ft 426 kts 256°
2026-05-04 23:15 37.84928 -120.54176 23339 ft 425 kts 256°
2026-05-04 23:16 37.84311 -120.57814 22866 ft 422 kts 256°
2026-05-04 23:16 37.83699 -120.61429 22408 ft 419 kts 256°
2026-05-04 23:16 37.83098 -120.64976 21992 ft 415 kts 256°
2026-05-04 23:16 37.82486 -120.68577 21557 ft 412 kts 256°
2026-05-04 23:17 37.81886 -120.72102 21145 ft 408 kts 256°
2026-05-04 23:17 37.81290 -120.75596 20733 ft 405 kts 255°
2026-05-04 23:17 37.80699 -120.79062 20337 ft 401 kts 255°
2026-05-04 23:17 37.80125 -120.82416 20186 ft 390 kts 255°
2026-05-04 23:18 37.79559 -120.85720 20003 ft 381 kts 255°
2026-05-04 23:18 37.78993 -120.88990 19529 ft 381 kts 255°
2026-05-04 23:18 37.78425 -120.92249 19157 ft 377 kts 255°
2026-05-04 23:18 37.77868 -120.95446 18661 ft 364 kts 255°
2026-05-04 23:19 37.77331 -120.98523 18197 ft 357 kts 258°
2026-05-04 23:19 37.76795 -121.01588 17684 ft 357 kts 258°
2026-05-04 23:19 37.76260 -121.04644 17207 ft 356 kts 258°
2026-05-04 23:19 37.75725 -121.07701 16726 ft 356 kts 258°
2026-05-04 23:20 37.75195 -121.10747 16290 ft 354 kts 258°
2026-05-04 23:20 37.74669 -121.13772 15867 ft 352 kts 258°
2026-05-04 23:20 37.74144 -121.16783 15451 ft 350 kts 258°
2026-05-04 23:20 37.73625 -121.19758 15014 ft 340 kts 258°
2026-05-04 23:21 37.73126 -121.22610 14641 ft 330 kts 258°
2026-05-04 23:21 37.72633 -121.25433 14257 ft 327 kts 258°
2026-05-04 23:21 37.72143 -121.28232 13887 ft 326 kts 258°
2026-05-04 23:21 37.71653 -121.31019 13466 ft 324 kts 258°
2026-05-04 23:22 37.71133 -121.33777 13061 ft 322 kts 254°
2026-05-04 23:22 37.70449 -121.36463 12667 ft 320 kts 251°
2026-05-04 23:22 37.69912 -121.38386 12389 ft 318 kts 251°
2026-05-04 23:29 37.69831 -121.38673 12352 ft 317 kts 251°
2026-05-04 23:30 37.69096 -121.41266 11983 ft 313 kts 251°
2026-05-04 23:30 37.68366 -121.43863 11620 ft 315 kts 251°
2026-05-04 23:30 37.67639 -121.46480 11264 ft 316 kts 251°
2026-05-04 23:30 37.66917 -121.49105 10883 ft 318 kts 251°
2026-05-04 23:31 37.66198 -121.51728 10549 ft 315 kts 251°
2026-05-04 23:31 37.65487 -121.54331 10174 ft 312 kts 250°
2026-05-04 23:31 37.64795 -121.56870 9789 ft 295 kts 250°
2026-05-04 23:31 37.64136 -121.59282 9429 ft 290 kts 250°
2026-05-04 23:32 37.63483 -121.61674 9093 ft 287 kts 250°
2026-05-04 23:32 37.62837 -121.64036 8734 ft 280 kts 250°
2026-05-04 23:32 37.62222 -121.66281 8356 ft 262 kts 250°
2026-05-04 23:32 37.61652 -121.68377 8039 ft 244 kts 252°
2026-05-04 23:33 37.61353 -121.70437 7769 ft 236 kts 264°
2026-05-04 23:33 37.61246 -121.72485 7500 ft 234 kts 265°
2026-05-04 23:33 37.61141 -121.74526 7233 ft 232 kts 264°
2026-05-04 23:33 37.61023 -121.76538 6973 ft 229 kts 264°
2026-05-04 23:34 37.60896 -121.78531 6708 ft 226 kts 263°
2026-05-04 23:34 37.60768 -121.80493 6432 ft 224 kts 263°
2026-05-04 23:34 37.60664 -121.82452 6155 ft 225 kts 267°
2026-05-04 23:34 37.60672 -121.84420 5883 ft 224 kts 269°
2026-05-04 23:35 37.60698 -121.86380 5617 ft 223 kts 269°
2026-05-04 23:35 37.60719 -121.88330 5353 ft 222 kts 268°
2026-05-04 23:35 37.60734 -121.90276 5091 ft 221 kts 269°
2026-05-04 23:35 37.60746 -121.92188 4831 ft 216 kts 268°
2026-05-04 23:36 37.60758 -121.94031 4547 ft 210 kts 269°
2026-05-04 23:36 37.60742 -121.95845 4311 ft 205 kts 267°
2026-05-04 23:36 37.60692 -121.97637 4100 ft 204 kts 267°
2026-05-04 23:36 37.60641 -121.99455 3867 ft 205 kts 267°
2026-05-04 23:37 37.60648 -122.01239 3596 ft 202 kts 275°
2026-05-04 23:37 37.60800 -122.02995 3378 ft 207 kts 276°
2026-05-04 23:37 37.60964 -122.04798 3200 ft 206 kts 276°
2026-05-04 23:37 37.61120 -122.06578 2955 ft 201 kts 278°
2026-05-04 23:38 37.61625 -122.08138 2703 ft 187 kts 303°
2026-05-04 23:38 37.62333 -122.09453 2467 ft 177 kts 301°
2026-05-04 23:38 37.63033 -122.10685 2247 ft 168 kts 305°
2026-05-04 23:38 37.63746 -122.11795 2011 ft 162 kts 307°
2026-05-04 23:39 37.64485 -122.12914 1832 ft 167 kts 307°
2026-05-04 23:39 37.65214 -122.14004 1580 ft 156 kts 307°
2026-05-04 23:39 37.65883 -122.15006 1352 ft 142 kts 307°
2026-05-04 23:39 37.66484 -122.15911 1178 ft 131 kts 307°
2026-05-04 23:40 37.67094 -122.16829 1004 ft 141 kts 307°
2026-05-04 23:40 37.67523 -122.17472 858 ft 142 kts 307°
2026-05-04 23:40 37.68158 -122.18424 648 ft 139 kts 306°
2026-05-04 23:40 37.68760 -122.19329 479 ft 135 kts 307°
2026-05-04 23:41 37.69370 -122.20239 301 ft 134 kts 308°
2026-05-04 23:41 37.69972 -122.21145 120 ft 138 kts 308°
2026-05-04 23:41 37.70585 -122.22069 21 ft 130 kts 308°
2026-05-04 23:41 37.71064 -122.22798 16 ft 63 kts 310°
2026-05-04 23:42 37.71257 -122.23076 18 ft 37 kts 314°
2026-05-04 23:42 37.71426 -122.23141 16 ft 25 kts 348°
2026-05-04 23:42 37.71485 -122.23094 16 ft 10 kts 90°
2026-05-04 23:42 37.71458 -122.23015 16 ft 10 kts 125°
2026-05-04 23:43 37.71416 -122.22946 16 ft 10 kts 127°
2026-05-04 23:43 37.71374 -122.22877 16 ft 10 kts 127°
2026-05-04 23:43 37.71325 -122.22812 16 ft 11 kts 135°
2026-05-04 23:43 37.71269 -122.22729 16 ft 14 kts 128°
2026-05-04 23:44 37.71204 -122.22626 16 ft 16 kts 120°
2026-05-04 23:44 37.71237 -122.22494 16 ft 18 kts 50°
2026-05-04 23:44 37.71326 -122.22364 16 ft 21 kts 49°
2026-05-04 23:44 37.71345 -122.22185 17 ft 22 kts 83°
2026-05-04 23:45 37.71434 -122.22043 19 ft 21 kts 46°
2026-05-04 23:45 37.71489 -122.21986 17 ft 9 kts 14°
2026-05-04 23:45 37.71561 -122.22033 18 ft 14 kts 314°
2026-05-04 23:45 37.71572 -122.22045 17 ft 0 kts 320°
2026-05-04 23:46 37.71592 -122.22056 17 ft 8 kts 347°
2026-05-04 23:46 37.71629 -122.22010 18 ft 8 kts 104°
2026-05-04 23:47 37.71593 -122.21962 17 ft 0 kts 137°